星链-35030 (STARLINK-35030)

导读 | 豆包AI

STARLINK-35030是美国SpaceX公司星链星座的成员卫星,于2025年9月3日发射入轨。星链项目旨在构建全球低轨宽带互联网星座,为偏远地区等网络欠发达区域提供高速低延迟的互联网接入服务。该卫星属于量产型低轨通信卫星,采用平板设计与霍尔推进技术,服役寿命末期会主动离轨坠入大气层烧毁,降低空间碎片风险。

基本信息
目录编号:
65448
目录名称:
STARLINK-35030
国际标识:
2025-194Q
轨道中心:
EARTH
卫星名称:
星链-35030
卫星全名:
星链-35030 (STARLINK-35030)
卫星状态:
在轨 (已飞行192 天)
发射日期:
2025-09-03 UTC
国别 :
美国 (US)
星等 :
--
轨道信息
数据来源 国际轨道数据 AOE轨道数据
星历时间 2026-03-13T20:34:05+0800
21小时前
查看轨道信息
2026-03-13T01:00:00+0800
1天前
查看轨道信息
半长轴 6927.613km 6927.536km
偏心率 0.0002029 0.0002029
轨道倾角 97.603° 97.604°
近地点辐角 77.878° 77.468°
升交点赤经 288.156° 287.351°
平近点角 282.268° 186.070°
近地点 548.07km 547.993km
远地点 550.882km 550.805km
周期 95.639分钟 95.637分钟
每日圈数 15.056617 15.056866
详细信息
固有亮度:
5
最大亮度:
2.5
卫星平台:
Starlink V1.0
覆盖范围:
全球
运营商:
太空探索技术公司
运营商所在国:
美国
制造商(研发单位):
太空探索技术公司
制造商所在国:
美国
使用方式:
暂无
卫星简介
Starlink 计划是 SpaceX 推出的全球卫星互联网项目,通过发射低轨道卫星,为全球尤其是偏远地区提供高速、低延迟的互联网服务。自 2019 年起,Starlink 已部署数千颗卫星,旨在缩小全球数字鸿沟,推动互联网普及。该项目还为军事、航空等行业提供通信支持,带来广泛经济效益。
2D轨道图
3D轨道图
轨道高度分析图
轨道倾角分析图
轨道综合分析图
查看轨道综合分析图